[TLELIST] Archives

 

[TLELIST] Current TLEs

September 19th 2023 PDT

HST 1 20580U 90037B 23261.69988360 .00005897 00000-0 30574-3 0 9998 2 20580 28.4707 5.4228 0001980 318.9344 157.3066 15.14059501635649 ISS (ZARYA) 1 25544U 98067A 23262.35054104 .00014745 00000-0 27129-3 0 9992 2 25544 51.6415 222.0994 0005856 35.8467 129.0291 15.49409802416398 CXO 1 25867U 99040B 23263.15726486 .00001142 00000-0 00000-0 0 9993 2 25867 37.3289 184.6884 9044021 272.3966 1.3024 0.37815356 13547 ...Continue Reading

[TLELIST] Current TLEs

September 18th 2023 PDT

HST 1 20580U 90037B 23260.57104154 .00006402 00000-0 33284-3 0 9999 2 20580 28.4704 12.9421 0001941 304.5819 126.5622 15.14049203635474 ISS (ZARYA) 1 25544U 98067A 23261.37754304 .00014387 00000-0 26521-3 0 9999 2 25544 51.6416 226.9153 0005862 31.7166 102.3637 15.49379141416241 CXO 1 25867U 99040B 23263.15726486 .00001142 00000-0 00000+0 0 9992 2 25867 37.3289 184.6884 9044021 272.3966 1.3024 0.37815356 24695 ...Continue Reading

[TLELIST] Current TLEs

September 17th 2023 PDT

HST 1 20580U 90037B 23259.51230616 .00004650 00000-0 23912-3 0 9994 2 20580 28.4702 19.9953 0001931 293.1958 115.7737 15.14034648635312 ISS (ZARYA) 1 25544U 98067A 23260.34808469 .00013740 00000-0 25395-3 0 9997 2 25544 51.6410 232.0124 0005832 28.1553 120.1076 15.49346510416089 CXO 1 25867U 99040B 23260.50640322 .00001120 00000-0 00000-0 0 9999 2 25867 37.3315 184.9655 9046765 272.1795 0.3477 0.37816657 13536 ...Continue Reading

[TLELIST] Current TLEs

September 16th 2023 PDT

HST 1 20580U 90037B 23259.07203130 .00004867 00000-0 25078-3 0 9991 2 20580 28.4702 22.9282 0001906 287.3010 237.1661 15.14030966635513 ISS (ZARYA) 1 25544U 98067A 23259.38139350 .00014716 00000-0 27162-3 0 9993 2 25544 51.6408 236.7974 0005853 23.9093 128.9792 15.49320949415937 ...Continue Reading

[TLELIST] Current TLEs

September 15th 2023 PDT

HST 1 20580U 90037B 23257.81248889 .00005202 00000-0 26881-3 0 9998 2 20580 28.4700 31.3183 0001912 272.8941 212.7854 15.14018720635050 ISS (ZARYA) 1 25544U 98067A 23258.41510310 .00017764 00000-0 32632-3 0 9999 2 25544 51.6411 241.5794 0005745 20.8373 139.0145 15.49298881415789 CXO 1 25867U 99040B 23260.50833295 .00001120 00000-0 00000-0 0 9992 2 25867 37.3334 184.9791 9046737 272.1658 0.6137 0.37818921 13526 ...Continue Reading

[TLELIST] Current TLEs

September 15th 2023 PDT

HST 1 20580U 90037B 23257.81248889 .00005202 00000-0 26881-3 0 9998 2 20580 28.4700 31.3183 0001912 272.8941 212.7854 15.14018720635050 ISS (ZARYA) 1 25544U 98067A 23258.41510310 .00017764 00000-0 32632-3 0 9999 2 25544 51.6411 241.5794 0005745 20.8373 139.0145 15.49298881415789 CXO 1 25867U 99040B 23260.50833295 .00001120 00000-0 00000-0 0 9992 2 25867 37.3334 184.9791 9046737 272.1658 0.6137 0.37818921 13526 ...Continue Reading

[TLELIST] Current TLEs

September 14th 2023 PDT

HST 1 20580U 90037B 23256.82285900 .00006132 00000-0 31873-3 0 9993 2 20580 28.4700 37.9107 0001927 259.9274 221.0883 15.14009451634908 ISS (ZARYA) 1 25544U 98067A 23257.38022324 .00017103 00000-0 31494-3 0 9999 2 25544 51.6414 246.7016 0005696 16.7210 127.3716 15.49259772415628 CXO 1 25867U 99040B 23257.86400342 .00001078 00000-0 00000-0 0 9992 2 25867 37.3318 185.3140 9049798 271.8943 0.5927 0.37816461 13516 ...Continue Reading

[TLELIST] Current TLEs

September 13th 2023 PDT

HST 1 20580U 90037B 23255.83357118 .00006283 00000-0 32696-3 0 9995 2 20580 28.4697 44.5009 0001923 245.2563 233.0031 15.13999232634758 ISS (ZARYA) 1 25544U 98067A 23256.41618729 .00017281 00000-0 31853-3 0 9998 2 25544 51.6411 251.4735 0005608 14.3981 149.4424 15.49224328415471 CXO 1 25867U 99040B 23257.86400342 .00001078 00000-0 00000-0 0 9992 2 25867 37.3318 185.3140 9049798 271.8943 0.5927 0.37816461 13516 ...Continue Reading

[TLELIST] Current TLEs

September 12th 2023 PDT

HST 1 20580U 90037B 23255.11437545 .00005461 00000-0 28296-3 0 9997 2 20580 28.4696 49.2916 0001952 236.2340 274.3365 15.13989977634912 ISS (ZARYA) 1 25544U 98067A 23255.38032005 .00013436 00000-0 24997-3 0 9999 2 25544 51.6401 256.5983 0005435 10.4080 132.4374 15.49181900415313 CXO 1 25867U 99040B 23257.86400342 .00001078 00000-0 00000+0 0 9991 2 25867 37.3318 185.3140 9049798 271.8943 0.5927 0.37816461 24675 ...Continue Reading

[TLELIST] Current TLEs

September 12th 2023 PDT

HST 1 20580U 90037B 23255.11437545 .00005461 00000-0 28296-3 0 9997 2 20580 28.4696 49.2916 0001952 236.2340 274.3365 15.13989977634912 ISS (ZARYA) 1 25544U 98067A 23255.38032005 .00013436 00000-0 24997-3 0 9999 2 25544 51.6401 256.5983 0005435 10.4080 132.4374 15.49181900415313 CXO 1 25867U 99040B 23257.86400342 .00001078 00000-0 00000+0 0 9991 2 25867 37.3318 185.3140 9049798 271.8943 0.5927 0.37816461 24675 ...Continue Reading
  • This mailing list is a public mailing list - anyone may join or leave, at any time.
  • This mailing list is announce-only.

International Space Station (ISS) / Hubble Space Telescope (HST) / Chandra X-Ray Observatory Orbital Data via EMAIL

Privacy Policy:

Private list